Time,TemperatureF,DewpointF,PressureIn,WindDirection,WindDirectionDegrees,WindSpeedMPH,WindSpeedGustMPH,Humidity,HourlyPrecipIn,Conditions,Clouds,dailyrainin,SoftwareType,DateUTC
2013-09-17 00:02:00,60.5,59.6,30.19,ESE,113,0.4,1.2,97,0.00,RA,,0.00,WeatherDisplay:10.37,2013-09-17 05:02:00,
2013-09-17 00:07:00,60.5,59.6,30.18,ESE,115,0.1,1.0,97,0.00,RA,,0.00,WeatherDisplay:10.37,2013-09-17 05:07:00,
2013-09-17 00:12:00,60.5,59.6,30.18,SE,133,0.0,1.2,97,0.00,OVC,,0.00,WeatherDisplay:10.37,2013-09-17 05:12:00,
2013-09-17 00:17:00,60.6,59.7,30.18,SE,129,0.3,1.0,97,0.00,OVC,,0.00,WeatherDisplay:10.37,2013-09-17 05:17:00,
2013-09-17 00:22:00,60.6,59.7,30.17,SE,128,0.0,0.0,97,0.00,OVC,,0.00,WeatherDisplay:10.37,2013-09-17 05:22:00,
2013-09-17 00:27:00,60.6,59.7,30.18,East,89,0.0,0.0,97,0.00,OVC,,0.00,WeatherDisplay:10.37,2013-09-17 05:27:00,
2013-09-17 00:32:00,60.6,59.7,30.18,ESE,105,0.1,1.2,97,0.00,OVC,,0.00,WeatherDisplay:10.37,2013-09-17 05:32:00,
2013-09-17 00:37:00,60.6,59.7,30.18,ESE,105,0.0,0.0,97,0.00,OVC,,0.00,WeatherDisplay:10.37,2013-09-17 05:37:00,
2013-09-17 00:42:00,60.6,59.7,30.18,ESE,111,0.3,1.0,97,0.00,OVC,,0.00,WeatherDisplay:10.37,2013-09-17 05:42:00,
2013-09-17 00:47:00,60.6,59.7,30.18,ESE,121,0.0,1.2,97,0.00,OVC,,0.00,WeatherDisplay:10.37,2013-09-17 05:47:00,
2013-09-17 00:52:00,60.7,59.8,30.18,ESE,121,0.0,0.0,97,0.00,OVC,,0.00,WeatherDisplay:10.37,2013-09-17 05:52:00,
2013-09-17 00:57:00,60.6,59.7,30.18,ESE,121,0.0,0.0,97,0.00,OVC,,0.00,WeatherDisplay:10.37,2013-09-17 05:57:00,
2013-09-17 01:02:00,60.7,59.8,30.17,ESE,121,0.1,1.2,97,0.00,OVC,,0.00,WeatherDisplay:10.37,2013-09-17 06:02:00,
2013-09-17 01:07:00,60.7,59.8,30.17,SE,124,0.3,1.2,97,0.00,OVC,,0.00,WeatherDisplay:10.37,2013-09-17 06:07:00,
2013-09-17 01:12:00,60.7,59.8,30.18,ESE,122,0.3,1.2,97,0.00,OVC,,0.00,WeatherDisplay:10.37,2013-09-17 06:12:00,
2013-09-17 01:17:00,60.7,59.8,30.17,ESE,122,0.0,0.0,97,0.00,OVC,,0.00,WeatherDisplay:10.37,2013-09-17 06:17:00,
2013-09-17 01:22:00,60.7,59.8,30.17,SE,126,0.1,1.2,97,0.00,OVC,,0.00,WeatherDisplay:10.37,2013-09-17 06:22:00,
2013-09-17 01:27:00,60.7,59.8,30.17,SE,126,0.0,0.0,97,0.00,OVC,,0.00,WeatherDisplay:10.37,2013-09-17 06:27:00,
2013-09-17 01:32:00,60.8,59.9,30.16,SE,125,0.0,0.0,97,0.00,OVC,,0.00,WeatherDisplay:10.37,2013-09-17 06:32:00,
2013-09-17 01:37:00,60.8,59.9,30.17,SE,125,0.0,1.2,97,0.00,OVC,,0.00,WeatherDisplay:10.37,2013-09-17 06:37:00,
2013-09-17 01:42:00,60.8,59.9,30.16,SE,125,0.0,0.0,97,0.00,OVC,,0.00,WeatherDisplay:10.37,2013-09-17 06:42:00,
2013-09-17 01:47:00,60.9,60.0,30.16,NW,326,0.0,0.0,97,0.00,OVC,,0.00,WeatherDisplay:10.37,2013-09-17 06:47:00,
2013-09-17 01:52:00,60.9,60.0,30.16,NW,325,0.0,0.0,97,0.00,OVC,,0.00,WeatherDisplay:10.37,2013-09-17 06:52:00,
2013-09-17 01:57:00,60.9,60.0,30.17,SSE,148,0.2,1.2,97,0.00,OVC,,0.00,WeatherDisplay:10.37,2013-09-17 06:57:00,
2013-09-17 02:02:00,60.9,60.0,30.16,SSE,148,0.0,0.0,97,0.00,OVC,,0.00,WeatherDisplay:10.37,2013-09-17 07:02:00,
2013-09-17 02:07:00,60.9,60.0,30.17,SSE,148,0.1,0.0,97,0.00,OVC,,0.00,WeatherDisplay:10.37,2013-09-17 07:07:00,
2013-09-17 02:12:00,60.9,60.0,30.17,SSE,148,0.0,0.0,97,0.00,OVC,,0.00,WeatherDisplay:10.37,2013-09-17 07:12:00,
2013-09-17 02:17:00,61.0,60.1,30.16,SSE,148,0.0,0.0,97,0.00,OVC,,0.00,WeatherDisplay:10.37,2013-09-17 07:17:00,
2013-09-17 02:22:00,61.0,60.1,30.16,SSE,148,0.0,0.0,97,0.00,OVC,,0.00,WeatherDisplay:10.37,2013-09-17 07:22:00,
2013-09-17 02:27:00,61.1,60.2,30.16,ESE,115,0.3,1.0,97,0.00,OVC,,0.00,WeatherDisplay:10.37,2013-09-17 07:27:00,
2013-09-17 02:32:00,61.1,60.2,30.16,SE,131,0.0,0.0,97,0.00,OVC,,0.00,WeatherDisplay:10.37,2013-09-17 07:32:00,
2013-09-17 02:37:00,61.1,60.2,30.16,SE,131,0.1,1.2,97,0.00,OVC,,0.00,WeatherDisplay:10.37,2013-09-17 07:37:00,
2013-09-17 02:42:00,61.1,60.2,30.16,SE,131,0.0,0.0,97,0.00,OVC,,0.00,WeatherDisplay:10.37,2013-09-17 07:42:00,
2013-09-17 02:47:00,61.1,60.2,30.16,SE,131,0.0,0.0,97,0.00,OVC,,0.00,WeatherDisplay:10.37,2013-09-17 07:47:00,
2013-09-17 02:52:00,61.2,60.3,30.16,SE,131,0.0,0.0,97,0.00,OVC,,0.00,WeatherDisplay:10.37,2013-09-17 07:52:00,
2013-09-17 02:57:00,61.1,60.2,30.16,SE,131,0.0,0.0,97,0.00,OVC,,0.00,WeatherDisplay:10.37,2013-09-17 07:57:00,
2013-09-17 03:02:00,61.2,60.3,30.15,SE,131,0.0,0.0,97,0.00,OVC,,0.00,WeatherDisplay:10.37,2013-09-17 08:02:00,
2013-09-17 03:07:00,61.2,60.3,30.15,SE,131,0.0,0.0,97,0.00,OVC,,0.00,WeatherDisplay:10.37,2013-09-17 08:07:00,
2013-09-17 03:12:00,61.2,60.3,30.15,SE,131,0.0,0.0,97,0.00,OVC,,0.00,WeatherDisplay:10.37,2013-09-17 08:12:00,
2013-09-17 03:17:00,61.2,60.3,30.15,SE,131,0.0,0.0,97,0.00,OVC,,0.00,WeatherDisplay:10.37,2013-09-17 08:17:00,
2013-09-17 03:22:00,61.2,60.3,30.15,SE,131,0.0,1.0,97,0.00,OVC,,0.00,WeatherDisplay:10.37,2013-09-17 08:22:00,
2013-09-17 03:27:00,61.3,60.4,30.14,SE,131,0.0,0.0,97,0.00,OVC,,0.00,WeatherDisplay:10.37,2013-09-17 08:27:00,
2013-09-17 03:32:00,61.3,60.4,30.14,SE,131,0.0,0.0,97,0.00,OVC,,0.00,WeatherDisplay:10.37,2013-09-17 08:32:00,
2013-09-17 03:37:00,61.3,60.4,30.14,SE,131,0.0,0.0,97,0.00,OVC,,0.00,WeatherDisplay:10.37,2013-09-17 08:37:00,
2013-09-17 03:42:00,61.3,60.4,30.14,SE,131,0.2,0.0,97,0.00,OVC,,0.00,WeatherDisplay:10.37,2013-09-17 08:42:00,
2013-09-17 03:47:00,61.3,60.4,30.14,SE,131,0.0,0.0,97,0.00,OVC,,0.00,WeatherDisplay:10.37,2013-09-17 08:47:00,
2013-09-17 03:52:00,61.3,60.4,30.13,SE,127,0.0,0.0,97,0.00,OVC,,0.00,WeatherDisplay:10.37,2013-09-17 08:52:00,
2013-09-17 03:57:00,61.4,60.5,30.14,SE,127,0.0,0.0,97,0.01,RA,,0.01,WeatherDisplay:10.37,2013-09-17 08:57:00,
2013-09-17 04:02:00,61.4,60.5,30.13,ESE,123,0.3,1.2,97,0.01,RA,,0.01,WeatherDisplay:10.37,2013-09-17 09:02:00,
2013-09-17 04:07:00,61.4,60.5,30.13,ESE,123,0.0,0.0,97,0.06,RA,,0.06,WeatherDisplay:10.37,2013-09-17 09:07:00,
2013-09-17 04:12:00,61.4,60.5,30.12,ESE,123,0.0,1.2,97,0.09,RA,,0.09,WeatherDisplay:10.37,2013-09-17 09:12:00,
2013-09-17 04:17:00,61.4,60.5,30.11,ESE,123,0.3,1.2,97,0.10,RA,,0.10,WeatherDisplay:10.37,2013-09-17 09:17:00,
2013-09-17 04:22:00,61.4,60.5,30.11,SE,131,0.3,1.2,97,0.11,RA,,0.11,WeatherDisplay:10.37,2013-09-17 09:22:00,
2013-09-17 04:27:00,61.4,60.5,30.11,SE,131,0.0,1.2,97,0.11,RA,,0.11,WeatherDisplay:10.37,2013-09-17 09:27:00,
2013-09-17 04:32:00,61.4,60.5,30.12,NNW,336,0.0,1.2,97,0.11,OVC,,0.11,WeatherDisplay:10.37,2013-09-17 09:32:00,
2013-09-17 04:37:00,61.5,60.6,30.12,NNW,336,0.0,0.0,97,0.11,OVC,,0.11,WeatherDisplay:10.37,2013-09-17 09:37:00,
2013-09-17 04:42:00,61.5,60.6,30.12,NNW,336,0.0,0.0,97,0.11, +RA,,0.11,WeatherDisplay:10.37,2013-09-17 09:42:00,
2013-09-17 04:47:00,61.5,60.9,30.12,NNW,336,0.0,0.0,98,0.11, +RA,,0.11,WeatherDisplay:10.37,2013-09-17 09:47:00,
2013-09-17 04:52:00,61.5,60.6,30.11,SE,129,0.0,1.2,97,0.13, +RA,,0.15,WeatherDisplay:10.37,2013-09-17 09:52:00,
2013-09-17 04:57:00,61.5,60.9,30.11,SE,129,0.0,0.0,98,0.17, +RA,,0.18,WeatherDisplay:10.37,2013-09-17 09:57:00,
2013-09-17 05:02:00,61.6,61.0,30.11,SE,129,0.0,0.0,98,0.19,-RA,,0.20,WeatherDisplay:10.37,2013-09-17 10:02:00,
2013-09-17 05:07:00,61.6,61.0,30.11,SE,129,0.0,0.0,98,0.14,-RA,,0.20,WeatherDisplay:10.37,2013-09-17 10:07:00,
2013-09-17 05:12:00,61.6,61.0,30.11,SE,129,0.0,0.0,98,0.10,-RA,,0.20,WeatherDisplay:10.37,2013-09-17 10:12:00,
2013-09-17 05:17:00,61.7,61.1,30.11,SE,129,0.0,0.0,98,0.09,-RA,,0.20,WeatherDisplay:10.37,2013-09-17 10:17:00,
2013-09-17 05:22:00,61.7,61.1,30.11,SE,129,0.0,0.0,98,0.09, +RA,,0.20,WeatherDisplay:10.37,2013-09-17 10:22:00,
2013-09-17 05:27:00,61.7,61.1,30.11,SE,129,0.0,0.0,98,0.09, +RA,,0.20,WeatherDisplay:10.37,2013-09-17 10:27:00,
2013-09-17 05:32:00,61.7,61.1,30.12,SE,129,0.0,0.0,98,0.09, +RA,,0.20,WeatherDisplay:10.37,2013-09-17 10:32:00,
2013-09-17 05:37:00,61.7,61.1,30.11,SE,129,0.0,0.0,98,0.09, +RA,,0.20,WeatherDisplay:10.37,2013-09-17 10:37:00,
2013-09-17 05:42:00,61.8,61.2,30.11,SE,129,0.0,0.0,98,0.09,-RA,,0.20,WeatherDisplay:10.37,2013-09-17 10:42:00,
2013-09-17 05:47:00,61.8,61.2,30.11,SE,129,0.0,1.2,98,0.09,-RA,,0.20,WeatherDisplay:10.37,2013-09-17 10:47:00,
2013-09-17 05:52:00,61.8,61.2,30.10,SE,129,0.0,0.0,98,0.07,-RA,,0.20,WeatherDisplay:10.37,2013-09-17 10:52:00,
2013-09-17 05:57:00,61.8,61.2,30.10,SE,129,0.0,0.0,98,0.03,-RA,,0.20,WeatherDisplay:10.37,2013-09-17 10:57:00,
2013-09-17 06:02:00,61.9,61.3,30.11,SE,129,0.0,0.0,98,0.01,-RA,,0.20,WeatherDisplay:10.37,2013-09-17 11:02:00,
2013-09-17 06:07:00,61.9,61.3,30.11,SE,129,0.0,0.0,98,0.01,-RA,,0.20,WeatherDisplay:10.37,2013-09-17 11:07:00,
2013-09-17 06:12:00,61.9,61.3,30.11,SE,129,0.0,0.0,98,0.01,-RA,,0.20,WeatherDisplay:10.37,2013-09-17 11:12:00,
2013-09-17 06:17:00,61.9,61.3,30.11,SE,129,0.4,1.2,98,0.02,-RA,,0.21,WeatherDisplay:10.37,2013-09-17 11:17:00,
2013-09-17 06:22:00,62.0,61.4,30.12,SE,129,0.0,0.0,98,0.02,-RA,,0.21,WeatherDisplay:10.37,2013-09-17 11:22:00,
2013-09-17 06:27:00,62.0,61.4,30.12,SE,129,0.0,0.0,98,0.01,-RA,,0.21,WeatherDisplay:10.37,2013-09-17 11:27:00,
2013-09-17 06:32:00,62.0,61.4,30.12,SE,129,0.0,0.0,98,0.01,-RA,,0.21,WeatherDisplay:10.37,2013-09-17 11:32:00,
2013-09-17 06:37:00,62.1,61.5,30.12,SE,129,0.0,0.0,98,0.02,-RA,,0.22,WeatherDisplay:10.37,2013-09-17 11:37:00,
2013-09-17 06:42:00,62.0,61.4,30.12,SE,129,0.0,0.0,98,0.02,-RA,,0.22,WeatherDisplay:10.37,2013-09-17 11:42:00,
2013-09-17 06:47:00,62.1,61.5,30.12,SE,129,0.0,0.0,98,0.02,-RA,,0.23,WeatherDisplay:10.37,2013-09-17 11:47:00,
2013-09-17 06:52:00,62.2,61.6,30.13,SE,129,0.0,0.0,98,0.03,-RA,,0.24,WeatherDisplay:10.37,2013-09-17 11:52:00,
2013-09-17 06:57:00,62.2,61.6,30.13,SE,129,0.0,0.0,98,0.05,-RA,,0.25,WeatherDisplay:10.37,2013-09-17 11:57:00,
2013-09-17 07:02:00,62.2,61.6,30.13,SSE,159,0.0,0.0,98,0.06, +RA,,0.26,WeatherDisplay:10.37,2013-09-17 12:02:00,
2013-09-17 07:07:00,62.2,61.6,30.13,SSE,159,0.0,0.0,98,0.06, +RA,,0.27,WeatherDisplay:10.37,2013-09-17 12:07:00,
2013-09-17 07:12:00,62.3,61.7,30.13,SSE,159,0.0,0.0,98,0.07, +RA,,0.28,WeatherDisplay:10.37,2013-09-17 12:12:00,
2013-09-17 07:17:00,62.3,61.7,30.13,SSE,159,0.0,0.0,98,0.07, +RA,,0.28,WeatherDisplay:10.37,2013-09-17 12:17:00,
2013-09-17 07:22:00,62.3,61.7,30.14,SSE,159,0.0,0.0,98,0.08,-RA,,0.30,WeatherDisplay:10.37,2013-09-17 12:22:00,
2013-09-17 07:27:00,62.3,61.7,30.14,West,268,0.0,0.0,98,0.09,-RA,,0.31,WeatherDisplay:10.37,2013-09-17 12:27:00,
2013-09-17 07:32:00,62.3,61.7,30.14,West,268,0.0,0.0,98,0.12,-RA,,0.34,WeatherDisplay:10.37,2013-09-17 12:32:00,
2013-09-17 07:37:00,62.4,61.8,30.14,West,268,0.0,0.0,98,0.13,-RA,,0.35,WeatherDisplay:10.37,2013-09-17 12:37:00,
2013-09-17 07:42:00,62.4,61.8,30.13,West,268,0.0,0.0,98,0.14,-RA,,0.36,WeatherDisplay:10.37,2013-09-17 12:42:00,
2013-09-17 07:47:00,62.4,61.8,30.14,West,268,0.0,0.0,98,0.15,-RA,,0.38,WeatherDisplay:10.37,2013-09-17 12:47:00,
2013-09-17 07:52:00,62.4,61.8,30.14,West,268,0.0,0.0,98,0.17,-RA,,0.40,WeatherDisplay:10.37,2013-09-17 12:52:00,
2013-09-17 07:57:00,62.5,61.9,30.14,West,268,0.0,0.0,98,0.17,-RA,,0.42,WeatherDisplay:10.37,2013-09-17 12:57:00,
2013-09-17 08:02:00,62.5,61.9,30.13,West,268,0.0,0.0,98,0.17,RA,,0.43,WeatherDisplay:10.37,2013-09-17 13:02:00,
2013-09-17 08:07:00,62.5,61.9,30.13,West,269,0.0,0.0,98,0.18,RA,,0.45,WeatherDisplay:10.37,2013-09-17 13:07:00,
2013-09-17 08:12:00,62.5,61.9,30.12,NNE,25,0.0,1.2,98,0.18,RA,,0.46,WeatherDisplay:10.37,2013-09-17 13:12:00,
2013-09-17 08:17:00,62.5,61.9,30.13,NNE,20,0.0,0.0,98,0.19,RA,,0.47,WeatherDisplay:10.37,2013-09-17 13:17:00,
2013-09-17 08:22:00,62.6,62.0,30.14,NNW,331,0.0,0.0,98,0.19, +RA,,0.48,WeatherDisplay:10.37,2013-09-17 13:22:00,
2013-09-17 08:27:00,62.6,62.0,30.14,NNW,331,0.0,0.0,98,0.19, +RA,,0.50,WeatherDisplay:10.37,2013-09-17 13:27:00,
2013-09-17 08:32:00,62.7,62.1,30.14,NNW,331,0.0,0.0,98,0.17, +RA,,0.50,WeatherDisplay:10.37,2013-09-17 13:32:00,
2013-09-17 08:37:00,62.7,62.1,30.13,NNW,331,0.0,0.0,98,0.17, +RA,,0.51,WeatherDisplay:10.37,2013-09-17 13:37:00,
2013-09-17 08:42:00,62.7,62.1,30.14,NNW,331,0.0,0.0,98,0.16, +RA,,0.52,WeatherDisplay:10.37,2013-09-17 13:42:00,
2013-09-17 08:47:00,62.8,62.2,30.12,NNW,331,0.0,0.0,98,0.15, +RA,,0.54,WeatherDisplay:10.37,2013-09-17 13:47:00,
2013-09-17 08:52:00,62.8,62.2,30.13,NNW,330,0.0,0.0,98,0.14, +RA,,0.55,WeatherDisplay:10.37,2013-09-17 13:52:00,
2013-09-17 08:57:00,62.9,62.3,30.13,SW,231,0.0,1.2,98,0.14, +RA,,0.56,WeatherDisplay:10.37,2013-09-17 13:57:00,
2013-09-17 09:02:00,63.0,62.4,30.13,ESE,108,0.0,0.0,98,0.14,RA,,0.57,WeatherDisplay:10.37,2013-09-17 14:02:00,
2013-09-17 09:07:00,63.0,62.4,30.14,South,179,0.0,0.0,98,0.15,RA,,0.61,WeatherDisplay:10.37,2013-09-17 14:07:00,
2013-09-17 09:12:00,63.1,62.5,30.14,West,263,0.0,1.2,98,0.16,RA,,0.62,WeatherDisplay:10.37,2013-09-17 14:12:00,
2013-09-17 09:17:00,63.1,62.5,30.13,ESE,119,0.2,1.2,98,0.17,RA,,0.64,WeatherDisplay:10.37,2013-09-17 14:17:00,
2013-09-17 09:22:00,63.1,62.5,30.12,WNW,295,0.0,1.2,98,0.17,RA,,0.65,WeatherDisplay:10.37,2013-09-17 14:22:00,
2013-09-17 09:27:00,63.1,62.5,30.13,ESE,112,0.0,1.2,98,0.17,RA,,0.66,WeatherDisplay:10.37,2013-09-17 14:27:00,
2013-09-17 09:32:00,63.1,62.5,30.13,SE,127,0.2,1.2,98,0.17,RA,,0.67,WeatherDisplay:10.37,2013-09-17 14:32:00,
2013-09-17 09:37:00,63.1,62.5,30.13,ESE,117,0.0,1.2,98,0.17,RA,,0.69,WeatherDisplay:10.37,2013-09-17 14:37:00,
2013-09-17 09:42:00,63.2,62.6,30.12,ESE,117,0.0,0.0,98,0.17,RA,,0.69,WeatherDisplay:10.37,2013-09-17 14:42:00,
2013-09-17 09:47:00,63.2,62.6,30.12,SE,133,0.2,1.0,98,0.20,RA,,0.72,WeatherDisplay:10.37,2013-09-17 14:47:00,
2013-09-17 09:52:00,63.3,62.7,30.12,SE,132,0.0,0.0,98,0.19,RA,,0.73,WeatherDisplay:10.37,2013-09-17 14:52:00,
2013-09-17 09:57:00,63.5,62.9,30.11,SE,133,0.0,0.0,98,0.19,RA,,0.75,WeatherDisplay:10.37,2013-09-17 14:57:00,
2013-09-17 10:02:00,63.8,63.2,30.12,SE,133,0.0,0.0,98,0.17,RA,,0.75,WeatherDisplay:10.37,2013-09-17 15:02:00,
2013-09-17 10:07:00,64.1,63.5,30.11,SE,133,0.1,1.2,98,0.15,OVC,,0.75,WeatherDisplay:10.37,2013-09-17 15:07:00,
2013-09-17 10:12:00,64.5,64.2,30.11,SE,133,0.1,1.2,99,0.13,OVC,,0.75,WeatherDisplay:10.37,2013-09-17 15:12:00,
2013-09-17 10:17:00,65.2,64.9,30.11,ESE,119,0.1,2.0,99,0.11,OVC,,0.75,WeatherDisplay:10.37,2013-09-17 15:17:00,
2013-09-17 10:22:00,65.6,65.3,30.11,SSW,204,0.1,1.2,99,0.09,-RA,,0.75,WeatherDisplay:10.37,2013-09-17 15:22:00,
2013-09-17 10:27:00,66.0,65.7,30.11,SSE,160,1.0,1.2,99,0.09,-RA,,0.75,WeatherDisplay:10.37,2013-09-17 15:27:00,
2013-09-17 10:32:00,66.0,65.4,30.11,SE,125,0.3,1.2,98,0.08,-RA,,0.75,WeatherDisplay:10.37,2013-09-17 15:32:00,
2013-09-17 10:37:00,66.4,65.8,30.11,South,169,1.1,2.3,98,0.06,-RA,,0.75,WeatherDisplay:10.37,2013-09-17 15:37:00,
2013-09-17 10:42:00,66.8,66.2,30.11,SE,125,1.7,3.5,98,0.06,-RA,,0.75,WeatherDisplay:10.37,2013-09-17 15:42:00,
2013-09-17 10:47:00,67.1,66.5,30.10,SE,140,0.1,2.3,98,0.02,-RA,,0.75,WeatherDisplay:10.37,2013-09-17 15:47:00,
2013-09-17 10:52:00,67.3,66.4,30.10,East,97,2.5,3.5,97,0.02,-RA,,0.75,WeatherDisplay:10.37,2013-09-17 15:52:00,
2013-09-17 10:57:00,67.3,66.1,30.11,SE,141,0.6,1.2,96,0.00,-RA,,0.75,WeatherDisplay:10.37,2013-09-17 15:57:00,
2013-09-17 11:02:00,67.4,66.2,30.11,East,81,1.0,2.3,96,0.00,BKN,,0.75,WeatherDisplay:10.37,2013-09-17 16:02:00,
2013-09-17 11:07:00,67.6,66.1,30.10,SE,139,1.1,3.5,95,0.00,BKN,,0.75,WeatherDisplay:10.37,2013-09-17 16:07:00,
2013-09-17 11:12:00,67.8,66.6,30.10,SSE,167,0.2,1.2,96,0.00,BKN,,0.75,WeatherDisplay:10.37,2013-09-17 16:12:00,
2013-09-17 11:17:00,68.1,66.9,30.10,WNW,299,0.4,1.2,96,0.00,BKN,,0.75,WeatherDisplay:10.37,2013-09-17 16:17:00,
2013-09-17 11:22:00,68.5,67.0,30.10,SSW,205,0.4,1.2,95,0.00,BKN,,0.75,WeatherDisplay:10.37,2013-09-17 16:22:00,
2013-09-17 11:27:00,68.9,67.1,30.09,SW,223,0.6,3.5,94,0.00,BKN,,0.75,WeatherDisplay:10.37,2013-09-17 16:27:00,
2013-09-17 11:32:00,69.5,67.4,30.09,SW,232,1.2,2.3,93,0.00,BKN,,0.75,WeatherDisplay:10.37,2013-09-17 16:32:00,
2013-09-17 11:37:00,69.9,67.5,30.09,SSW,193,1.2,3.5,92,0.00,BKN,,0.75,WeatherDisplay:10.37,2013-09-17 16:37:00,
2013-09-17 11:42:00,70.2,67.4,30.09,ESE,113,1.0,2.3,91,0.00,BKN,,0.75,WeatherDisplay:10.37,2013-09-17 16:42:00,
2013-09-17 11:47:00,70.4,67.0,30.09,East,96,1.9,3.5,89,0.00,BKN,,0.75,WeatherDisplay:10.37,2013-09-17 16:47:00,
2013-09-17 11:52:00,70.6,67.5,30.09,SW,230,0.9,2.3,90,0.00,BKN,,0.75,WeatherDisplay:10.37,2013-09-17 16:52:00,
2013-09-17 11:57:00,71.2,68.1,30.09,NE,49,1.1,1.2,90,0.00,BKN,,0.75,WeatherDisplay:10.37,2013-09-17 16:57:00,
2013-09-17 12:02:00,71.6,67.9,30.08,SSW,195,0.6,3.5,88,0.00,SCT,,0.75,WeatherDisplay:10.37,2013-09-17 17:02:00,
2013-09-17 12:07:00,72.1,68.0,30.08,South,169,1.2,3.5,87,0.00,SCT,,0.75,WeatherDisplay:10.37,2013-09-17 17:07:00,
2013-09-17 12:12:00,72.5,68.4,30.08,SSW,199,1.9,2.3,87,0.00,SCT,,0.75,WeatherDisplay:10.37,2013-09-17 17:12:00,
2013-09-17 12:17:00,72.9,68.1,30.08,South,187,2.1,5.8,85,0.00,SCT,,0.75,WeatherDisplay:10.37,2013-09-17 17:17:00,
2013-09-17 12:22:00,73.1,68.0,30.08,SE,137,1.7,2.3,84,0.00,SCT,,0.75,WeatherDisplay:10.37,2013-09-17 17:22:00,
2013-09-17 12:27:00,73.4,67.6,30.08,SE,139,3.5,6.9,82,0.00,SCT,,0.75,WeatherDisplay:10.37,2013-09-17 17:27:00,
2013-09-17 12:32:00,73.5,68.7,30.08,South,187,1.7,3.5,85,0.00,SCT,,0.75,WeatherDisplay:10.37,2013-09-17 17:32:00,
2013-09-17 12:37:00,73.9,68.8,30.08,South,171,1.5,3.5,84,0.00,SCT,,0.75,WeatherDisplay:10.37,2013-09-17 17:37:00,
2013-09-17 12:42:00,74.0,67.8,30.08,SW,214,2.2,4.6,81,0.00,SCT,,0.75,WeatherDisplay:10.37,2013-09-17 17:42:00,
2013-09-17 12:47:00,73.7,67.5,30.07,SW,231,1.4,3.5,81,0.00,SCT,,0.75,WeatherDisplay:10.37,2013-09-17 17:47:00,
2013-09-17 12:52:00,73.5,67.3,30.07,SE,142,1.4,2.3,81,0.00,SCT,,0.75,WeatherDisplay:10.37,2013-09-17 17:52:00,
2013-09-17 12:57:00,73.3,67.8,30.07,SE,131,1.2,4.0,83,0.00,SCT,,0.75,WeatherDisplay:10.37,2013-09-17 17:57:00,
2013-09-17 13:02:00,73.1,67.3,30.07,SE,131,1.9,3.5,82,0.00,CLR,,0.75,WeatherDisplay:10.37,2013-09-17 18:02:00,
2013-09-17 13:07:00,73.3,67.8,30.07,SE,129,2.1,3.5,83,0.00,CLR,,0.75,WeatherDisplay:10.37,2013-09-17 18:07:00,
2013-09-17 13:12:00,73.6,67.4,30.06,SW,228,3.2,4.6,81,0.00,CLR,,0.75,WeatherDisplay:10.37,2013-09-17 18:12:00,
2013-09-17 13:17:00,73.4,67.6,30.06,SE,143,0.9,3.5,82,0.00,CLR,,0.75,WeatherDisplay:10.37,2013-09-17 18:17:00,
2013-09-17 13:22:00,73.4,67.6,30.06,ESE,114,1.7,3.5,82,0.00,CLR,,0.75,WeatherDisplay:10.37,2013-09-17 18:22:00,
2013-09-17 13:27:00,73.2,67.4,30.06,West,276,1.3,3.5,82,0.00,CLR,,0.75,WeatherDisplay:10.37,2013-09-17 18:27:00,
2013-09-17 13:32:00,73.2,67.7,30.06,SE,144,2.5,5.8,83,0.00,CLR,,0.75,WeatherDisplay:10.37,2013-09-17 18:32:00,
2013-09-17 13:37:00,73.3,67.5,30.05,SE,127,2.5,3.5,82,0.00,CLR,,0.75,WeatherDisplay:10.37,2013-09-17 18:37:00,
2013-09-17 13:42:00,73.4,67.9,30.05,SW,219,1.5,2.0,83,0.00,BKN,,0.75,WeatherDisplay:10.37,2013-09-17 18:42:00,
2013-09-17 13:47:00,73.8,67.6,30.05,WSW,240,1.7,3.5,81,0.00,BKN,,0.75,WeatherDisplay:10.37,2013-09-17 18:47:00,
2013-09-17 13:52:00,73.8,68.0,30.04,ESE,119,0.7,2.3,82,0.00,BKN,,0.75,WeatherDisplay:10.37,2013-09-17 18:52:00,
2013-09-17 13:57:00,73.9,68.1,30.04,SSW,206,2.5,2.5,82,0.00,BKN,,0.75,WeatherDisplay:10.37,2013-09-17 18:57:00,
2013-09-17 14:02:00,74.1,67.5,30.04,SSE,148,2.2,4.6,80,0.00,BKN,,0.75,WeatherDisplay:10.37,2013-09-17 19:02:00,
2013-09-17 14:07:00,74.3,68.4,30.04,SSW,209,0.7,5.0,82,0.00,BKN,,0.75,WeatherDisplay:10.37,2013-09-17 19:07:00,
2013-09-17 14:12:00,74.3,67.7,30.04,SE,141,1.5,2.3,80,0.00,BKN,,0.75,WeatherDisplay:10.37,2013-09-17 19:12:00,
2013-09-17 14:17:00,74.1,67.9,30.04,ESE,111,2.6,4.0,81,0.00,BKN,,0.75,WeatherDisplay:10.37,2013-09-17 19:17:00,
2013-09-17 14:22:00,74.2,68.0,30.03,ESE,109,1.9,3.5,81,0.00,BKN,,0.75,WeatherDisplay:10.37,2013-09-17 19:22:00,
2013-09-17 14:28:00,74.1,68.3,30.03,SE,141,0.9,3.5,82,0.00,BKN,,0.75,WeatherDisplay:10.37,2013-09-17 19:28:00,
2013-09-17 14:33:00,74.2,68.3,30.03,South,179,0.5,2.3,82,0.00,BKN,,0.75,WeatherDisplay:10.37,2013-09-17 19:33:00,
2013-09-17 14:38:00,74.2,68.0,30.03,ESE,120,2.0,2.3,81,0.00,BKN,,0.75,WeatherDisplay:10.37,2013-09-17 19:38:00,
2013-09-17 14:43:00,74.1,67.5,30.03,SE,124,2.1,5.8,80,0.00,BKN,,0.75,WeatherDisplay:10.37,2013-09-17 19:43:00,
2013-09-17 14:48:00,74.0,67.8,30.03,SSE,151,1.4,3.5,81,0.00,BKN,,0.75,WeatherDisplay:10.37,2013-09-17 19:48:00,
2013-09-17 14:53:00,74.3,68.1,30.03,SE,146,1.6,4.0,81,0.00,BKN,,0.75,WeatherDisplay:10.37,2013-09-17 19:53:00,
2013-09-17 14:58:00,74.4,68.2,30.02,SE,124,1.4,3.5,81,0.00,BKN,,0.75,WeatherDisplay:10.37,2013-09-17 19:58:00,
2013-09-17 15:03:00,74.6,68.0,30.02,SE,127,2.2,3.5,80,0.00,OVC,,0.75,WeatherDisplay:10.37,2013-09-17 20:03:00,
2013-09-17 15:08:00,74.3,67.7,30.02,SE,136,1.2,3.5,80,0.00,OVC,,0.75,WeatherDisplay:10.37,2013-09-17 20:08:00,
2013-09-17 15:13:00,74.3,68.1,30.01,South,175,1.2,3.5,81,0.00,OVC,,0.75,WeatherDisplay:10.37,2013-09-17 20:13:00,
2013-09-17 15:18:00,74.0,67.8,30.01,SSE,155,1.6,3.5,81,0.00,OVC,,0.75,WeatherDisplay:10.37,2013-09-17 20:18:00,
2013-09-17 15:23:00,73.9,68.1,30.01,SSW,196,0.5,2.3,82,0.00,OVC,,0.75,WeatherDisplay:10.37,2013-09-17 20:23:00,
2013-09-17 15:28:00,73.7,67.9,30.01,ESE,103,2.6,3.5,82,0.00,OVC,,0.75,WeatherDisplay:10.37,2013-09-17 20:28:00,
2013-09-17 15:33:00,73.5,68.0,30.00,ESE,116,1.5,3.5,83,0.00,OVC,,0.75,WeatherDisplay:10.37,2013-09-17 20:33:00,
2013-09-17 15:38:00,73.4,67.9,30.00,SE,139,0.8,2.3,83,0.00,OVC,,0.75,WeatherDisplay:10.37,2013-09-17 20:38:00,
2013-09-17 15:43:00,73.4,67.9,30.00,SW,233,0.2,1.2,83,0.00,OVC,,0.75,WeatherDisplay:10.37,2013-09-17 20:43:00,
2013-09-17 15:48:00,73.7,68.6,30.00,South,173,0.5,2.3,84,0.00,OVC,,0.75,WeatherDisplay:10.37,2013-09-17 20:48:00,
2013-09-17 15:53:00,73.9,68.4,29.99,ESE,116,0.7,1.2,83,0.00,OVC,,0.75,WeatherDisplay:10.37,2013-09-17 20:53:00,
2013-09-17 15:58:00,73.9,68.4,29.99,SSE,164,0.3,1.2,83,0.00,OVC,,0.75,WeatherDisplay:10.37,2013-09-17 20:58:00,
2013-09-17 16:03:00,74.1,68.3,29.99,SE,129,1.5,2.3,82,0.00,OVC,,0.75,WeatherDisplay:10.37,2013-09-17 21:03:00,
2013-09-17 16:08:00,74.2,68.7,29.98,ESE,117,0.4,3.0,83,0.00,OVC,,0.75,WeatherDisplay:10.37,2013-09-17 21:08:00,
2013-09-17 16:13:00,74.1,68.6,29.98,SE,141,0.7,2.3,83,0.00,OVC,,0.75,WeatherDisplay:10.37,2013-09-17 21:13:00,
2013-09-17 16:18:00,74.0,68.5,29.98,SW,236,1.2,2.3,83,0.00,OVC,,0.75,WeatherDisplay:10.37,2013-09-17 21:18:00,
2013-09-17 16:23:00,74.0,68.5,29.97,South,173,0.8,1.2,83,0.00,OVC,,0.75,WeatherDisplay:10.37,2013-09-17 21:23:00,
2013-09-17 16:28:00,74.2,69.1,29.97,ESE,112,0.3,2.3,84,0.00,OVC,,0.75,WeatherDisplay:10.37,2013-09-17 21:28:00,
2013-09-17 16:33:00,74.5,69.0,29.97,ESE,120,0.6,2.3,83,0.00,OVC,,0.75,WeatherDisplay:10.37,2013-09-17 21:33:00,
2013-09-17 16:38:00,74.5,68.6,29.97,SE,125,0.0,1.2,82,0.00,OVC,,0.75,WeatherDisplay:10.37,2013-09-17 21:38:00,
2013-09-17 16:43:00,74.7,68.8,29.96,SE,139,1.2,3.5,82,0.00,OVC,,0.75,WeatherDisplay:10.37,2013-09-17 21:43:00,
2013-09-17 16:48:00,75.4,68.8,29.96,ESE,113,1.7,3.5,80,0.00,OVC,,0.75,WeatherDisplay:10.37,2013-09-17 21:48:00,
2013-09-17 16:53:00,76.2,69.2,29.96,ESE,105,1.4,4.0,79,0.00,OVC,,0.75,WeatherDisplay:10.37,2013-09-17 21:53:00,
2013-09-17 16:58:00,76.8,69.0,29.96,ESE,105,2.2,4.6,77,0.00,OVC,,0.75,WeatherDisplay:10.37,2013-09-17 21:58:00,
2013-09-17 17:03:00,76.9,69.1,29.95,East,96,2.5,3.5,77,0.00,OVC,,0.75,WeatherDisplay:10.37,2013-09-17 22:03:00,
2013-09-17 17:08:00,77.1,69.7,29.95,SE,131,1.2,3.5,78,0.00,OVC,,0.75,WeatherDisplay:10.37,2013-09-17 22:08:00,
2013-09-17 17:13:00,77.0,68.9,29.95,South,191,2.5,3.5,76,0.00,SCT,,0.75,WeatherDisplay:10.37,2013-09-17 22:13:00,
2013-09-17 17:18:00,76.9,69.1,29.95,SE,146,1.4,3.5,77,0.00,SCT,,0.75,WeatherDisplay:10.37,2013-09-17 22:18:00,
2013-09-17 17:23:00,76.5,69.1,29.95,SSE,162,1.7,3.5,78,0.00,SCT,,0.75,WeatherDisplay:10.37,2013-09-17 22:23:00,
2013-09-17 17:28:00,76.7,69.7,29.95,SE,141,0.8,2.3,79,0.00,SCT,,0.75,WeatherDisplay:10.37,2013-09-17 22:28:00,
2013-09-17 17:33:00,77.0,69.2,29.95,SE,129,0.4,2.3,77,0.00,SCT,,0.75,WeatherDisplay:10.37,2013-09-17 22:33:00,
2013-09-17 17:38:00,77.3,69.5,29.95,SE,131,1.7,3.5,77,0.00,SCT,,0.75,WeatherDisplay:10.37,2013-09-17 22:38:00,
2013-09-17 17:43:00,77.4,69.6,29.95,SSW,207,0.6,1.2,77,0.00,SCT,,0.75,WeatherDisplay:10.37,2013-09-17 22:43:00,
2013-09-17 17:48:00,77.6,69.4,29.94,SE,124,0.4,2.3,76,0.00,SCT,,0.75,WeatherDisplay:10.37,2013-09-17 22:48:00,
2013-09-17 17:53:00,77.5,69.3,29.94,SE,125,0.6,1.2,76,0.00,SCT,,0.75,WeatherDisplay:10.37,2013-09-17 22:53:00,
2013-09-17 17:58:00,77.3,69.5,29.94,ESE,116,0.4,1.2,77,0.00,SCT,,0.75,WeatherDisplay:10.37,2013-09-17 22:58:00,
2013-09-17 18:03:00,77.2,69.4,29.93,SSE,147,2.5,4.6,77,0.00,CLR,,0.75,WeatherDisplay:10.37,2013-09-17 23:03:00,
2013-09-17 18:08:00,77.0,69.2,29.93,SE,140,0.9,2.3,77,0.00,CLR,,0.75,WeatherDisplay:10.37,2013-09-17 23:08:00,
2013-09-17 18:13:00,77.0,69.6,29.93,SSE,163,0.0,0.0,78,0.00,CLR,,0.75,WeatherDisplay:10.37,2013-09-17 23:13:00,
2013-09-17 18:18:00,76.8,69.4,29.93,ESE,108,0.1,1.2,78,0.00,CLR,,0.75,WeatherDisplay:10.37,2013-09-17 23:18:00,
2013-09-17 18:23:00,76.5,69.1,29.93,ESE,120,0.6,1.2,78,0.00,CLR,,0.75,WeatherDisplay:10.37,2013-09-17 23:23:00,
2013-09-17 18:28:00,76.2,69.2,29.93,ESE,104,0.5,1.2,79,0.00,CLR,,0.75,WeatherDisplay:10.37,2013-09-17 23:28:00,
2013-09-17 18:33:00,76.0,69.0,29.93,SE,135,1.3,3.5,79,0.00,CLR,,0.75,WeatherDisplay:10.37,2013-09-17 23:33:00,
2013-09-17 18:38:00,75.8,69.2,29.93,East,94,0.4,1.2,80,0.00,CLR,,0.75,WeatherDisplay:10.37,2013-09-17 23:38:00,
2013-09-17 18:43:00,75.5,68.9,29.93,SE,127,1.6,3.5,80,0.00,CLR,,0.75,WeatherDisplay:10.37,2013-09-17 23:43:00,
2013-09-17 18:48:00,75.3,69.1,29.92,SE,127,0.4,2.3,81,0.00,CLR,,0.75,WeatherDisplay:10.37,2013-09-17 23:48:00,
2013-09-17 18:53:00,75.3,69.1,29.92,SE,142,1.2,2.3,81,0.00,CLR,,0.75,WeatherDisplay:10.37,2013-09-17 23:53:00,
2013-09-17 18:58:00,75.2,69.0,29.92,NE,45,1.2,2.3,81,0.00,CLR,,0.75,WeatherDisplay:10.37,2013-09-17 23:58:00,
2013-09-17 19:03:00,74.9,68.7,29.92,ESE,115,0.6,1.2,81,0.00,CLR,,0.75,WeatherDisplay:10.37,2013-09-18 00:03:00,
2013-09-17 19:08:00,74.5,68.6,29.92,SE,141,0.1,2.3,82,0.00,CLR,,0.75,WeatherDisplay:10.37,2013-09-18 00:08:00,
2013-09-17 19:13:00,74.2,68.7,29.92,SE,145,1.0,2.3,83,0.00,CLR,,0.75,WeatherDisplay:10.37,2013-09-18 00:13:00,
2013-09-17 19:18:00,74.0,68.5,29.92,ESE,120,0.7,2.3,83,0.00,CLR,,0.75,WeatherDisplay:10.37,2013-09-18 00:18:00,
2013-09-17 19:23:00,73.7,68.6,29.92,ESE,115,0.4,1.2,84,0.00,CLR,,0.75,WeatherDisplay:10.37,2013-09-18 00:23:00,
2013-09-17 19:28:00,73.5,68.7,29.92,SE,134,0.7,2.3,85,0.00,CLR,,0.75,WeatherDisplay:10.37,2013-09-18 00:28:00,
2013-09-17 19:33:00,73.3,68.5,29.92,ESE,119,0.0,0.0,85,0.00,CLR,,0.75,WeatherDisplay:10.37,2013-09-18 00:33:00,
2013-09-17 19:38:00,73.0,68.6,29.92,ESE,114,1.3,2.3,86,0.00,CLR,,0.75,WeatherDisplay:10.37,2013-09-18 00:38:00,
2013-09-17 19:43:00,72.8,68.7,29.92,ESE,115,0.1,1.0,87,0.00,CLR,,0.75,WeatherDisplay:10.37,2013-09-18 00:43:00,
2013-09-17 19:48:00,72.5,68.4,29.92,East,97,0.5,2.3,87,0.00,CLR,,0.75,WeatherDisplay:10.37,2013-09-18 00:48:00,
2013-09-17 19:53:00,72.3,68.5,29.92,SE,130,0.2,1.2,88,0.00,CLR,,0.75,WeatherDisplay:10.37,2013-09-18 00:53:00,
2013-09-17 19:58:00,72.1,68.3,29.92,SE,124,0.3,1.2,88,0.00,CLR,,0.75,WeatherDisplay:10.37,2013-09-18 00:58:00,
2013-09-17 20:03:00,71.9,68.5,29.93,East,97,0.4,2.0,89,0.00,CLR,,0.75,WeatherDisplay:10.37,2013-09-18 01:03:00,
2013-09-17 20:08:00,71.7,68.3,29.93,ESE,119,0.0,1.2,89,0.00,CLR,,0.75,WeatherDisplay:10.37,2013-09-18 01:08:00,
2013-09-17 20:13:00,71.5,68.4,29.93,ESE,117,0.2,1.2,90,0.00,CLR,,0.75,WeatherDisplay:10.37,2013-09-18 01:13:00,
2013-09-17 20:18:00,71.4,68.3,29.93,SE,131,0.5,3.5,90,0.00,CLR,,0.75,WeatherDisplay:10.37,2013-09-18 01:18:00,
2013-09-17 20:23:00,71.2,68.1,29.94,SE,124,0.7,2.0,90,0.00,CLR,,0.75,WeatherDisplay:10.37,2013-09-18 01:23:00,
2013-09-17 20:28:00,71.2,68.1,29.94,ESE,117,0.2,1.2,90,0.00,CLR,,0.75,WeatherDisplay:10.37,2013-09-18 01:28:00,
2013-09-17 20:33:00,71.1,68.0,29.94,SSE,150,0.0,1.2,90,0.00,CLR,,0.75,WeatherDisplay:10.37,2013-09-18 01:33:00,
2013-09-17 20:38:00,71.0,67.9,29.94,ESE,121,0.1,1.2,90,0.00,CLR,,0.75,WeatherDisplay:10.37,2013-09-18 01:38:00,
2013-09-17 20:43:00,70.9,67.8,29.94,SE,128,0.0,1.2,90,0.00,CLR,,0.75,WeatherDisplay:10.37,2013-09-18 01:43:00,
2013-09-17 20:48:00,70.7,67.6,29.95,ESE,121,0.4,2.3,90,0.00,CLR,,0.75,WeatherDisplay:10.37,2013-09-18 01:48:00,
2013-09-17 20:53:00,70.6,67.5,29.95,SSE,154,0.3,1.2,90,0.00,CLR,,0.75,WeatherDisplay:10.37,2013-09-18 01:53:00,
2013-09-17 20:59:00,70.5,67.7,29.95,ESE,108,1.5,3.0,91,0.00,CLR,,0.75,WeatherDisplay:10.37,2013-09-18 01:59:00,
2013-09-17 21:04:00,70.4,67.6,29.95,ESE,119,0.5,1.2,91,0.00,CLR,,0.75,WeatherDisplay:10.37,2013-09-18 02:04:00,
2013-09-17 21:09:00,70.2,67.8,29.95,SE,125,0.7,1.2,92,0.00,CLR,,0.75,WeatherDisplay:10.37,2013-09-18 02:09:00,
2013-09-17 21:14:00,70.1,67.7,29.95,ESE,122,0.8,2.3,92,0.00,CLR,,0.75,WeatherDisplay:10.37,2013-09-18 02:14:00,
2013-09-17 21:19:00,70.0,67.6,29.95,SE,137,0.2,1.2,92,0.00,CLR,,0.75,WeatherDisplay:10.37,2013-09-18 02:19:00,
2013-09-17 21:24:00,69.9,67.8,29.95,ESE,114,0.5,2.3,93,0.00,CLR,,0.75,WeatherDisplay:10.37,2013-09-18 02:24:00,
2013-09-17 21:29:00,69.8,67.7,29.95,SE,132,0.2,1.0,93,0.00,CLR,,0.75,WeatherDisplay:10.37,2013-09-18 02:29:00,
2013-09-17 21:34:00,69.8,67.7,29.95,SE,139,0.4,2.3,93,0.00,CLR,,0.75,WeatherDisplay:10.37,2013-09-18 02:34:00,
2013-09-17 21:39:00,69.8,67.7,29.95,SE,124,0.0,1.2,93,0.00,CLR,,0.75,WeatherDisplay:10.37,2013-09-18 02:39:00,
2013-09-17 21:44:00,69.7,67.6,29.95,South,174,0.0,1.2,93,0.00,CLR,,0.75,WeatherDisplay:10.37,2013-09-18 02:44:00,
2013-09-17 21:49:00,69.6,67.5,29.95,SE,144,0.0,0.0,93,0.00,CLR,,0.75,WeatherDisplay:10.37,2013-09-18 02:49:00,
2013-09-17 21:54:00,69.5,67.4,29.95,ESE,120,0.2,1.2,93,0.00,CLR,,0.75,WeatherDisplay:10.37,2013-09-18 02:54:00,
2013-09-17 21:59:00,69.4,67.6,29.96,ESE,122,0.2,2.3,94,0.00,CLR,,0.75,WeatherDisplay:10.37,2013-09-18 02:59:00,
2013-09-17 22:04:00,69.3,67.5,29.96,SE,128,0.7,1.2,94,0.00,CLR,,0.75,WeatherDisplay:10.37,2013-09-18 03:04:00,
2013-09-17 22:09:00,69.2,67.4,29.95,SE,141,0.3,1.2,94,0.00,CLR,,0.75,WeatherDisplay:10.37,2013-09-18 03:09:00,
2013-09-17 22:14:00,69.2,67.4,29.95,SE,127,0.5,3.0,94,0.00,CLR,,0.75,WeatherDisplay:10.37,2013-09-18 03:14:00,
2013-09-17 22:19:00,69.2,67.4,29.95,SE,124,0.0,0.0,94,0.00,CLR,,0.75,WeatherDisplay:10.37,2013-09-18 03:19:00,
2013-09-17 22:24:00,69.0,67.2,29.95,SE,124,0.0,0.0,94,0.00,CLR,,0.75,WeatherDisplay:10.37,2013-09-18 03:24:00,
2013-09-17 22:29:00,69.0,67.2,29.95,SE,131,0.3,1.2,94,0.00,CLR,,0.75,WeatherDisplay:10.37,2013-09-18 03:29:00,
2013-09-17 22:34:00,68.9,67.1,29.96,ESE,102,0.0,0.0,94,0.00,CLR,,0.75,WeatherDisplay:10.37,2013-09-18 03:34:00,
2013-09-17 22:39:00,68.9,67.1,29.96,ESE,115,0.5,2.3,94,0.00,CLR,,0.75,WeatherDisplay:10.37,2013-09-18 03:39:00,
2013-09-17 22:44:00,68.8,67.0,29.96,SE,124,0.0,1.2,94,0.00,CLR,,0.75,WeatherDisplay:10.37,2013-09-18 03:44:00,
2013-09-17 22:49:00,68.8,67.0,29.96,SSE,155,0.0,0.0,94,0.00,CLR,,0.75,WeatherDisplay:10.37,2013-09-18 03:49:00,
2013-09-17 22:54:00,68.7,66.9,29.95,ESE,119,0.0,0.0,94,0.00,CLR,,0.75,WeatherDisplay:10.37,2013-09-18 03:54:00,
2013-09-17 22:59:00,68.6,66.8,29.95,ESE,103,0.0,0.0,94,0.00,CLR,,0.75,WeatherDisplay:10.37,2013-09-18 03:59:00,
2013-09-17 23:01:00,68.6,66.8,29.95,SE,126,0.2,0.0,94,0.00,CLR,,0.75,WeatherDisplay:10.37,2013-09-18 04:01:00,
2013-09-17 23:02:00,68.6,66.8,29.96,SE,133,0.7,2.3,94,0.00,CLR,,0.75,WeatherDisplay:10.37,2013-09-18 04:02:00,
2013-09-17 23:07:00,68.6,66.8,29.95,ESE,120,0.0,1.2,94,0.00,CLR,,0.75,WeatherDisplay:10.37,2013-09-18 04:07:00,
2013-09-17 23:12:00,68.5,66.4,29.96,ESE,120,0.0,1.2,93,0.00,CLR,,0.75,WeatherDisplay:10.37,2013-09-18 04:12:00,
2013-09-17 23:17:00,68.4,66.6,29.95,SE,143,0.1,1.0,94,0.00,CLR,,0.75,WeatherDisplay:10.37,2013-09-18 04:17:00,
2013-09-17 23:22:00,68.4,66.3,29.95,SE,141,0.0,0.0,93,0.00,CLR,,0.75,WeatherDisplay:10.37,2013-09-18 04:22:00,
2013-09-17 23:27:00,68.3,66.2,29.95,SE,141,0.0,0.0,93,0.00,CLR,,0.75,WeatherDisplay:10.37,2013-09-18 04:27:00,
2013-09-17 23:32:00,68.2,66.1,29.95,SE,124,0.5,1.2,93,0.00,CLR,,0.75,WeatherDisplay:10.37,2013-09-18 04:32:00,
2013-09-17 23:37:00,68.2,66.1,29.95,ESE,121,0.3,2.3,93,0.00,CLR,,0.75,WeatherDisplay:10.37,2013-09-18 04:37:00,
2013-09-17 23:42:00,68.1,66.0,29.95,SE,124,0.3,1.2,93,0.00,CLR,,0.75,WeatherDisplay:10.37,2013-09-18 04:42:00,
2013-09-17 23:47:00,68.1,66.0,29.95,SE,124,0.0,0.0,93,0.00,CLR,,0.75,WeatherDisplay:10.37,2013-09-18 04:47:00,
2013-09-17 23:52:00,68.0,65.9,29.95,SE,124,0.1,1.2,93,0.00,CLR,,0.75,WeatherDisplay:10.37,2013-09-18 04:52:00,
2013-09-17 23:57:00,67.9,66.1,29.95,ESE,117,0.0,1.2,94,0.00,CLR,,0.75,WeatherDisplay:10.37,2013-09-18 04:57:00,